Location: Unnamed
(51.8936°N, 11.0665°E)
Time: 13:43:04
(UTC+02:00)

UNISAT 6 - Visible Passes

Search period start: 27 September 2021 00:00
Search period end: 07 October 2021 00:00
Orbit: 607 x 687 km, 97.7° (Epoch: 26 September)

Date Brightness Start Highest point End Pass type
(mag) Time Alt. Az. Time Alt. Az. Time Alt. Az.
27 Sep ? 06:11:11 10° ESE 06:14:58 26° ENE 06:18:50 10° N visible
27 Sep ? 19:32:45 10° NE 19:36:45 27° E 19:40:42 10° SSE visible
27 Sep ? 21:09:06 10° N 21:13:37 46° WNW 21:18:05 10° SW visible
28 Sep ? 06:36:08 10° SE 06:40:25 41° ENE 06:44:47 10° N visible
28 Sep ? 19:58:03 10° NNE 20:02:34 44° E 20:07:00 10° S visible
28 Sep ? 21:35:01 10° N 21:39:05 29° WNW 21:43:06 10° WSW visible
29 Sep ? 05:28:07 10° ENE 05:30:08 13° NE 05:32:09 10° NNE visible
29 Sep ? 20:23:34 10° NNE 20:28:18 74° ESE 20:32:57 10° S visible
29 Sep ? 22:01:09 10° NNW 22:04:28 19° WNW 22:07:46 10° WSW visible
30 Sep ? 05:52:09 10° ESE 05:55:24 19° ENE 05:58:42 10° NNE visible
30 Sep ? 20:49:15 10° N 20:53:56 68° WNW 20:58:32 10° SSW visible
30 Sep ? 22:27:42 10° NNW 22:29:46 13° NW 22:31:48 10° WNW visible
01 Oct ? 06:16:49 10° ESE 06:20:47 30° ENE 06:24:50 10° N visible
01 Oct ? 19:38:32 10° NNE 19:42:41 30° E 19:46:45 10° SSE visible
01 Oct ? 21:15:03 10° N 21:19:28 41° WNW 21:23:49 10° SW visible
02 Oct ? 06:41:51 10° SE 06:46:15 47° ENE 06:50:45 10° N visible
02 Oct ? 20:03:54 10° NNE 20:08:29 50° E 20:12:58 10° S visible
02 Oct ? 21:41:01 10° N 21:44:55 26° WNW 21:48:45 10° WSW visible
03 Oct ? 05:33:26 10° E 05:35:53 14° NE 05:38:22 10° NNE visible
03 Oct ? 20:29:27 10° NNE 20:34:11 84° ESE 20:38:48 10° SSW visible
03 Oct ? 22:07:13 10° NNW 22:10:15 17° NW 22:13:17 10° W visible
04 Oct ? 05:57:42 10° ESE 06:01:12 22° ENE 06:04:45 10° N visible
04 Oct ? 19:19:11 10° NE 19:22:43 21° E 19:26:12 10° SE visible
04 Oct ? 20:55:10 10° N 20:59:47 59° WNW 21:04:19 10° SSW visible
04 Oct ? 22:34:03 10° NNW 22:35:31 11° NW 22:37:00 10° WNW visible
05 Oct ? 06:22:28 10° SE 06:26:36 33° ENE 06:30:48 10° N visible
05 Oct ? 19:44:19 10° NNE 19:48:36 34° E 19:52:46 10° SSE visible
05 Oct ? 21:21:01 10° N 21:25:18 36° WNW 21:29:30 10° SW visible
06 Oct ? 05:15:34 10° ENE 05:16:26 10° NE 05:17:16 10° NE visible
06 Oct ? 06:47:35 10° SE 06:52:06 53° ENE 06:56:41 10° N visible
06 Oct ? 20:09:45 10° NNE 20:14:22 57° E 20:18:53 10° S visible
06 Oct ? 21:47:01 10° N 21:50:43 24° WNW 21:54:20 10° WSW visible
